Regional Weather Roundup
Issued by NWS Sterling, VA

Home | Current Version | Previous Version | Graphics & Text | Print | Product List | Glossary On
Versions: 1 2 3 4 5 6 7 8 9 10 11 12 13 14 15 16 17 18 19 20 21 22 23 24 25 26 27 28 29 30 31 32 33 34 35 36 37 38 39 40 41 42 43 44 45 46 47 48 49 50
000
ASUS41 KLWX 161911
RWRLWX

REGIONAL WEATHER ROUNDUP
NATIONAL WEATHER SERVICE BALTIMORE MD/WASHINGTON DC
300 PM EDT MON OCT 16 2017

Note: "FAIR" indicates few or no clouds below 12,000 feet
with no significant weather and/or obstructions to visibility.
 TC=TEMPERATURE CELSIUS

 * =Non NWS site. Station does not report precipitation (e.g. rain,
    snow, etc.), thunder, or fog.

DCZ001-MDZ009-015-VAZ040>042-051-053>054-162000-
WASHINGTON METRO

CITY           SKY/WX    TMP DP  RH WIND       PRES   REMARKS
WASHINGTON NAT CLOUDY    62  41  46 NW17      30.10S
DULLES         PTSUNNY   63  37  38 N15G24    30.10F
ANDREWS AFB    PTSUNNY   61  41  47 NW14      30.08S
FT BELVOIR     CLOUDY    61  37  41 N8G24     30.11R
QUANTICO       CLOUDY    63  41  44 N13G23    30.12R
COLLEGE PARK*  CLOUDY    60  40  48 NW13      30.09S
LEESBURG*      SUNNY     64  37  36 N14G29    30.12S
MANASSAS*      PTSUNNY   64  39  39 NW21      30.11S
GAITHERSBURG*  CLOUDY    62  40  44 VRB7      30.11S

$$

MDZ006>007-011-014-162000-
BALTIMORE METRO

CITY           SKY/WX    TMP DP  RH WIND       PRES   REMARKS
BWI AIRPORT    PTSUNNY   61  41  47 N13G21    30.08F
MD SCIENCE CTR   N/A     62  39  42 MISG      30.09S
MARTIN STATE   PTSUNNY   63  46  55 NW10G20   30.10S
ANNAPOLIS      CLOUDY    62  47  57 NW12G20   30.08F
FORT MEADE*    CLOUDY    59  43  55 NW9G18    30.11S

$$

MDZ012-015-019>023-162000-
MARYLAND EASTERN SHORE

CITY           SKY/WX    TMP DP  RH WIND       PRES   REMARKS
OCEAN CITY     CLOUDY    58  54  86 N6        30.04F
SALISBURY      CLOUDY    60  49  66 N9        30.04S
CAMBRIDGE*     CLOUDY    61  46  59 NW16      30.07R
EASTON*        PTSUNNY   61  45  55 N10       30.12R

$$

MDZ017>025-162000-
SOUTHERN MARYLAND

CITY           SKY/WX    TMP DP  RH WIND       PRES   REMARKS
PATUXENT RIVER CLOUDY    63  46  54 N16       30.07S
ST INIGOES     PTSUNNY   63  47  55 VRB5      30.06F
LEONARDTOWN*   NOT AVBL

$$

MDZ003>005-162000-
NORTH CENTRAL MARYLAND

CITY           SKY/WX    TMP DP  RH WIND       PRES   REMARKS
FREDERICK*     MOSUNNY   66  30  26 NW17G24   30.13F
HAGERSTOWN APT MOSUNNY   62  33  33 N18G26    30.12S
WESTMINSTER*   SUNNY     61  37  41 NW12G20   30.10S

$$

MDZ501>502-162000-
WESTERN MARYLAND

CITY           SKY/WX    TMP DP  RH WIND       PRES   REMARKS
OAKLAND*       PTSUNNY   45  34  65 NW8       30.15F
CUMBERLAND*    SUNNY     61  32  33 NW13G24   30.20S

$$

VAZ025>031-162000-
SHENANDOAH VALLEY

CITY           SKY/WX    TMP DP  RH WIND       PRES   REMARKS
WINCHESTER*    SUNNY     61  34  36 NW17G25   30.13R
FRONT ROYAL*   MOSUNNY   61  37  41 NW10G18   30.12S
LURAY*         PTSUNNY   61  39  44 N7G23     30.14S
NEW MARKET*    MOSUNNY   59  38  45 N6        30.15S
STAUNTON*      CLOUDY    61  39  44 N13G18    30.17S
WAYNESBORO*    CLOUDY    60  38  44 N15G23    30.14S

$$

WVZ021-048>050-054>055-162000-
EASTERN WEST VIRGINIA PANHANDLE

CITY           SKY/WX    TMP DP  RH WIND       PRES   REMARKS
MARTINSBURG    SUNNY     64  33  31 N14G22    30.12S
PETERSBURG*    PTSUNNY   56  40  55 NW13G20   30.19R

$$

VAZ036>039-050-162000-
CENTRAL FOOTHILLS

CITY           SKY/WX    TMP DP  RH WIND       PRES   REMARKS
CHARLOTTESVILL CLOUDY    63  40  42 N10G17    30.13R
CULPEPER*      CLOUDY    65  37  35 NW15G23   30.13R
ORANGE*        PTSUNNY   61  41  48 N14       30.12S
GORDONSVILLE*  PTSUNNY   63  42  46 NW6       30.11S
WARRENTON*     MOSUNNY   66  34  30 NW17G25   30.11S

$$

VAZ055>057-162000-
NORTH AND CENTRAL PIEDMONT

CITY           SKY/WX    TMP DP  RH WIND       PRES   REMARKS
FREDERICKSBRG* CLOUDY    64  43  46 N20G25    30.10R
STAFFORD*      CLOUDY    61  40  45 NW14G20   30.15R

$$

NCZ024-NYZ072-PAZ021-071-VAZ022-071-162000-
OTHER REGIONAL OBSERVATIONS

CITY           SKY/WX    TMP DP  RH WIND       PRES   REMARKS
NEW YORK CITY  CLOUDY    58  40  51 NW8       30.05R
PHILADELPHIA   CLOUDY    57  39  51 N17G26    30.07R
PITTSBURGH     MOSUNNY   57  36  45 NW13G24   30.21F
ROANOKE        PTSUNNY   60  39  45 NW16G26   30.17S
RICHMOND       CLOUDY    64  42  44 N21G26    30.08S
RALEIGH        PTSUNNY   60  56  86 NE7       30.09S

$$

ANZ530>537-162000-
MARINE OBSERVATIONS

STATION/POSITION TIME  TEMP    WIND        PRES
                       AIR SEA DIR/SP/G
                 (UTC) (F)     (DEG/KT/KT) (MB)
THOMAS PT LIGHT  1900   59 70  360/ 10/ 13   N/A
BALT KEY BRIDGE  1848   61     330/ 16/ 21 1018.3F
COVE POINT       1848   60     350/ 19/ 22 1019.0S
LEWISETTA        1848   62 69  360/  9/ 14 1018.1F
SOLOMONS ISLAND  1836   61 71  350/ 14/ 16 1017.9F
PINEY POINT      1836           10/ 16/ 18   N/A

$$




USA.gov is the U.S. government's official web portal to all federal, state and local government web resources and services.